Location: Earls Croome
(52.0667°N, 2.2000°W)
Time: 01:30:12
(UTC+00:00)

Cosmos 2151 - Pass Details

Date: 17 November 2019
Orbit: 581 x 602 km, 82.5° (Epoch: 06 December)

Event Time Altitude Azimuth Distance (km) Brightness Sun altitude
Rises 05:02:37 0° 179° (S) 2,841 6.5 -22.6°
Reaches altitude 10° 05:04:50 10° 176° (S) 1,943 5.7 -22.2°
Maximum altitude 05:09:04 61° 96° (E) 691 3.5 -21.6°
Drops below altitude 10° 05:13:20 10° 17° (NNE) 1,957 5.8 -20.9°
Sets 05:15:34 0° 14° (NNE) 2,863 6.6 -20.6°
